星链-31669 (STARLINK-31669 )

导读

STARLINK-31669是美国SpaceX公司星链(Starlink)星座的成员卫星,于2024年4月17日发射入轨。星链星座旨在构建全球低轨宽带互联网,为偏远基础设施匮乏地区提供高速低延迟网络服务。 该星链卫星采用量产平板设计,搭载氪工质霍尔推进器,具备自主避撞能力,寿命末期会主动离轨坠入大气层焚毁,单星设计使用寿命约5至7年,助力实现全球覆盖的宽带通信服务。

Basic Information
目录编号:
59515
目录名称:
STARLINK-31669
国际标识:
2024-073E
轨道中心:
EARTH
卫星名称:
星链-31669
卫星全名:
星链-31669 (STARLINK-31669 )
卫星状态:
在轨 (已飞行870 天)
发射日期:
2024-04-17 UTC
国别 :
美国 (US)
星等 :
--
Orbit Information
数据来源 国际轨道数据 AOE轨道数据
星历时间 2026-09-04T02:30:18+0800
17小时前
查看轨道信息
2026-09-04T02:00:00+0800
18小时前
查看轨道信息
半长轴 6861.176km 6861.181km
偏心率 0.0001265 0.0002442
轨道倾角 43.003° 42.999°
近地点辐角 270.654° 292.090°
升交点赤经 32.074° 32.190°
平近点角 89.417° 312.091°
近地点 482.171km 481.368km
远地点 483.907km 484.72km
周期 94.267分钟 94.267分钟
每日圈数 15.275834 15.275819
Detailed Information
固有亮度:
5
最大亮度:
1.5
卫星平台:
Starlink v2.0 mini
覆盖范围:
全球
运营商:
太空探索技术公司
运营商所在国:
美国
制造商(研发单位):
太空探索技术公司
制造商所在国:
美国
使用方式:
暂无
Satellite Introduction
星链(Starlink)计划是由太空探索技术公司(SpaceX)提出的一个巨型低轨卫星互联网星座项目,计划在2019年至2024年间在太空搭建由约1.2万颗卫星组成的“星链”网络,其中1584颗将部署在地球上空550千米处的近地轨道,并从2020年开始工作。该卫星仍在工作。
2D Orbit Map
3D Orbit Map
Orbit Altitude Analysis Chart
Orbit Inclination Analysis Chart
Orbit Comprehensive Analysis Chart
View Comprehensive Chart
Conjunction Data List
Event ID Objects TCA Miss Dist (km) Collision Risk Probability Collision Risk Index (CRI) Action
CDM_260905-220305-840205-951521
2026-09-05T
22:03:58+0000
0.704 km
远距离
5.406914E-5 中风险 0.7
CDM_260905-053505-840205-951521
2026-09-05T
05:35:18+0000
0.930 km
远距离
2.18725E-5 中风险 0.62
CDM_260905-040105-840205-951521
2026-09-05T
04:01:09+0000
1.112 km
极远距离
1.181154E-5 中风险 0.56
CDM_260905-233805-840205-951521
2026-09-05T
23:38:07+0000
1.203 km
极远距离
8.992691E-6 低风险 0.54
CDM_260905-070905-840205-951521
2026-09-05T
07:09:28+0000
2.333 km
极远距离
1.35169E-6 低风险 0.38
CDM_260905-022605-840205-951521
2026-09-05T
02:26:59+0000
2.511 km
极远距离
1.183275E-6 低风险 0.36
CDM_260905-202905-840205-951521
2026-09-05T
20:29:48+0000
2.532 km
极远距离
1.166559E-6 低风险 0.36
CDM_260904-165705-951506-441621
2026-09-04T
16:57:37+0000
2.624 km
极远距离
9.447901E-7 极低风险 0.35